Погода в Никулино

Россия / Чувашская Республика     55°09′21″N   46°03′41″E
темп.,
°C
ветер,
м/с
пор.,
м/с
влажн.,
%
обл.,
%
осадки,
мм/ч
давл.,
гПа
погр.,
м
20 апреля, вт
вт2000:00+4в7133976 0.0 1027556
03:00+1в613515 0.0 1027384
06:00+1в514605 0.0 1028439
09:00+6вюв812420 0.0 10271036
12:00+9вюв911344 0.0 10261398
15:00+10вюв9113646 0.0 10251456
18:00+9вюв8124290 0.0 10241161
21:00+7вюв91540100 0.0 1022976
21 апреля, ср
ср2100:00+6вюв101743100 0.0 1020890
03:00+5юв101956100 0.9 1018920
06:00+2юв102086100 3.5 1017894
09:00+4юв101876100 3.8 1016929
12:00+5юв101779100 0.3 1015846
15:00+5ююв101780100 0.3 1015788
18:00+4ююв91785100 0.0 1015715
21:00+5ю91590100 0.3 1016916
22 апреля, чт
чт2200:00+5ю61294100 0.1 1017596
03:00+5ю4995100 0.1 1018392
06:00+5юв4697100 0.2 1020217
09:00+8ю588699 0.3 1020607
12:00+10ю787294 0.0 1020971
15:00+11юз6106833 0.8 10201141
18:00+11юз486441 0.1 1020364
21:00+8з11795 0.1 102210
23 апреля, пт
пт2300:00+6зюз22815 0.0 102211
03:00+5юз11850 0.0 102310
06:00+6ююв22835 0.0 102431
09:00+11ю34615 0.0 1024427
12:00+15ююв33455 0.0 10231496
15:00+16ююв234088 0.0 10221922
18:00+14юв2350100 0.0 102148
21:00+12юв496283 0.0 1021290
24 апреля, сб
сб2400:00+10юв387295 0.0 1020251
03:00+9юв4881100 0.0 1019242
06:00+8юв378572 0.0 1018244
09:00+11вюв466597 0.0 1017781
12:00+14вюв444814 0.0 10141628
15:00+14вюв654888 0.0 10121744
18:00+11вюв68665 0.0 1011746
21:00+9юв6118267 0.0 1010423